Stations météo

réclame
Mon MeteoGroup
Freiburg, Allemagne (10803): Température de l'air & dewpoint: 13.11.2017 18:00:00 - 19.11.2017 18:00:00 (CET)Freiburg, Allemagne (10803): Température de l'air 5cm & Température de l'air -5cm: 13.11.2017 18:00:00 - 19.11.2017 18:00:00 (CET)Freiburg, Allemagne (10803): Température de l'air -20cm & Température de l'air -100cm: 13.11.2017 18:00:00 - 19.11.2017 18:00:00 (CET)Freiburg, Allemagne (10803): Vitesse du vent & gusts: 13.11.2017 18:00:00 - 19.11.2017 18:00:00 (CET)Freiburg, Allemagne (10803): Direction du vent: 13.11.2017 18:00:00 - 19.11.2017 18:00:00 (CET)Freiburg, Allemagne (10803): reduced air pressure: 13.11.2017 18:00:00 - 19.11.2017 18:00:00 (CET)Freiburg, Allemagne (10803): visibility: 13.11.2017 18:00:00 - 19.11.2017 18:00:00 (CET)Freiburg, Allemagne (10803): Ensoleillement: 13.11.2017 18:00:00 - 19.11.2017 18:00:00 (CET)Freiburg, Allemagne (10803): Quantités de précipitations: 13.11.2017 18:00:00 - 19.11.2017 18:00:00 (CET)
Date & Time tt [°C] td [°C] tt 5cm [°C] tt -5cm [°C] tt -20cm [°C] tt -100cm [°C] ff [km/h] ff [knt] fx [km/h] fx [knt] dd ppp [hPa] vv [km] sd [min] rr [mm]
19.11.2017 18:00:00 4,8 1,2 3,4 4,5 6,3 9,8 14 8 18 10 S 1023,9 54 0 0,0
19.11.2017 17:00:00 4,6 0,9 1,7 5,4 6,3 9,9 7 4 15 8 SSW 1023,2 47 0 0,0
19.11.2017 16:00:00 6,3 1,1 5,2 7,0 6,2 9,9 11 6 22 12 SW 1022,6 65 53 0,0
19.11.2017 15:00:00 7,1 -0,7 8,0 7,6 6,0 9,9 11 6 23 12 WSW 1022,1 69 19 0,0
19.11.2017 14:00:00 7,0 1,3 7,5 7,9 5,6 9,9 11 6 21 12 W 1022,0 70 19 0,0
19.11.2017 13:00:00 7,4 2,8 10,2 8,5 5,2 9,9 10 5 18 10 SW 1021,9 55 54 0,0
19.11.2017 12:00:00 6,0 3,1 7,2 6,2 5,0 9,9 15 8 23 12 SW 1022,1 41 8 0,0
19.11.2017 11:00:00 5,3 3,1 5,8 5,3 4,9 9,9 14 8 25 13 SSW 1021,9 37 8 0,0
19.11.2017 10:00:00 4,3 2,7 4,5 4,1 4,9 9,9 14 8 31 17 SW 1021,6 24 1 0,0
19.11.2017 09:00:00 4,0 2,1 3,7 3,6 4,9 9,9 21 12 39 21 SW 1021,0 30 0 0,0
19.11.2017 08:00:00 4,1 1,6 3,7 3,4 4,9 9,9 26 14 42 23 SW 1020,4 39 0 0,0
19.11.2017 07:00:00 3,8 1,6 3,1 3,4 4,9 9,9 23 12 42 23 SSW 1020,0 30 0 0,1
19.11.2017 06:00:00 3,5 1,6 2,8 3,3 5,0 9,9 26 14 44 24 SSW 1019,9 16 0 0,9
19.11.2017 05:00:00 3,5 1,6 2,7 3,4 5,0 9,9 24 13 42 23 SSW 1020,4 14 0 0,5
19.11.2017 04:00:00 3,6 1,5 2,7 3,4 5,1 9,9 22 12 43 23 SSW 1020,7 12 0 0,8
19.11.2017 03:00:00 3,4 1,3 2,6 3,3 5,1 9,9 18 10 37 20 SSW 1021,4 15 0 0,6
19.11.2017 02:00:00 3,4 1,2 2,6 3,4 5,2 9,9 21 11 35 19 SSW 1021,9 12 0 0,9
19.11.2017 01:00:00 3,4 1,2 2,5 3,5 5,2 9,9 22 12 38 20 SSW 1022,4 13 0 0,3
19.11.2017 00:00:00 4,4 0,4 2,9 3,5 5,3 9,9 24 13 40 22 SSW 1022,8 20 0 0,1
18.11.2017 23:00:00 4,6 0,3 3,7 3,3 5,4 9,9 20 11 30 16 SSW 1023,3 19 0 0,0
18.11.2017 22:00:00 4,3 0,0 3,0 3,2 5,6 9,9 16 8 24 13 S 1023,9 26 0 0,0
18.11.2017 21:00:00 4,3 0,2 3,1 3,4 5,7 9,9 16 9 25 14 SSW 1024,5 23 0 0,0
18.11.2017 20:00:00 4,7 0,0 3,9 3,7 5,9 10,0 16 8 25 13 SSW 1024,4 25 0 0,0
18.11.2017 19:00:00 4,7 -0,1 3,9 3,8 6,0 10,0 14 8 28 15 SW 1024,4 28 0 0,0
18.11.2017 18:00:00 5,1 0,1 4,1 4,4 6,2 10,0 18 10 27 15 SSW 1024,5 29 0 0,0
18.11.2017 17:00:00 5,0 0,8 4,0 4,8 6,2 10,0 14 8 29 16 SW 1024,4 32 0 0,0
18.11.2017 16:00:00 5,8 0,9 5,2 6,3 6,2 10,0 23 12 32 17 SW 1024,2 42 40 0,0
18.11.2017 15:00:00 6,0 1,3 6,3 6,5 6,1 10,0 17 9 23 13 SW 1024,4 43 0 0,0
18.11.2017 14:00:00 6,1 3,3 6,6 7,0 5,9 10,0 10 6 19 11 SW 1024,5 14 0 0,0
18.11.2017 13:00:00 6,2 2,6 7,2 6,9 5,7 10,0 8 4 14 7 SSW 1025,0 21 1 0,0
18.11.2017 12:00:00 5,6 4,1 6,3 6,3 5,6 10,0 6 4 9 5 SW 1025,5 7 0 0,0
18.11.2017 11:00:00 5,1 3,9 5,4 5,5 5,5 10,0 4 2 7 4 WNW 1025,8 8 0 0,0
18.11.2017 10:00:00 4,8 3,9 4,9 5,1 5,5 10,0 1 1 5 3 W 1025,6 6 0 0,0
18.11.2017 09:00:00 4,5 3,9 4,6 4,8 5,5 10,0 3 1 5 3 NNW 1025,6 6 0 0,0
18.11.2017 08:00:00 4,3 3,9 4,4 4,6 5,4 10,0 3 1 6 3 NW 1025,6 3,8 0 0,0
18.11.2017 07:00:00 4,3 3,9 4,2 4,6 5,4 10,1 4 2 5 3 NNW 1025,5 3,4 0 0,0
18.11.2017 06:00:00 4,3 4,0 4,3 4,6 5,4 10,1 0 0 6 3 N 1025,4 3,3 0 0,0
18.11.2017 05:00:00 4,2 3,9 4,3 4,6 5,4 10,1 4 2 6 3 NNW 1025,7 2,0 0 0,0
18.11.2017 04:00:00 4,2 3,9 4,3 4,6 5,4 10,1 3 2 5 3 WNW 1025,6 2,2 0 0,1
18.11.2017 03:00:00 4,2 3,8 4,3 4,6 5,4 10,1 2 1 8 4 N 1026,0 2,2 0 0,0
18.11.2017 02:00:00 4,4 3,6 4,4 4,6 5,4 10,1 6 3 11 6 NW 1025,9 6 0 0,0
18.11.2017 01:00:00 4,4 4,0 4,4 4,6 5,4 10,1 6 3 8 4 SE 1025,9 2,6 0 0,0
18.11.2017 00:00:00 4,0 3,5 4,2 4,6 5,5 10,1 6 3 8 4 NW 1026,6 3,2 0 0,0
17.11.2017 23:00:00 4,0 3,4 4,1 4,7 5,5 10,1 3 2 5 3 WSW 1026,5 4,8 0 0,0
17.11.2017 22:00:00 3,9 3,2 4,1 4,7 5,5 10,2 3 2 6 3 N 1026,8 5 0 0,0
17.11.2017 21:00:00 4,0 3,2 4,1 4,7 5,5 10,2 2 1 11 6 N 1026,7 5 0 0,0
17.11.2017 20:00:00 4,0 3,2 4,1 4,8 5,6 10,2 8 5 12 6 NW 1026,8 4,8 0 0,0
17.11.2017 19:00:00 4,1 3,0 4,1 4,9 5,6 10,2 4 2 9 5 N 1026,5 5 0 0,0
17.11.2017 18:00:00 4,2 2,9 4,2 5,3 5,6 10,2 6 4 12 7 NNW 1026,7 6 0 0,0
17.11.2017 17:00:00 4,4 2,8 4,6 5,8 5,5 10,2 9 5 14 8 NNW 1026,6 7 0 0,0
17.11.2017 16:00:00 5,3 2,7 5,7 6,8 5,3 10,2 10 6 14 7 NW 1026,2 9 0 0,0
17.11.2017 15:00:00 5,7 2,4 7,2 7,2 5,0 10,2 8 4 13 7 NW 1026,3 11 16 0,0
17.11.2017 14:00:00 5,6 2,0 7,5 6,9 4,7 10,3 8 4 12 7 NNW 1026,6 12 0 0,0
17.11.2017 13:00:00 5,0 1,1 7,3 6,9 4,3 10,3 8 4 14 7 N 1027,2 12 0 0,0
17.11.2017 12:00:00 4,9 0,9 8,1 5,8 4,0 10,3 5 3 10 5 NNE 1027,4 11 0 0,0
17.11.2017 11:00:00 3,3 0,3 4,8 4,3 3,8 10,3 5 3 8 5 NW 1027,9 11 0 0,0
17.11.2017 10:00:00 2,5 0,3 4,0 3,2 3,7 10,3 4 2 8 4 N 1028,0 14 0 0,0
17.11.2017 09:00:00 1,7 0,1 2,3 2,3 3,7 10,3 5 3 7 4 NNW 1028,2 11 0 0,0
17.11.2017 08:00:00 1,2 -0,2 1,5 1,9 3,7 10,3 3 2 6 3 NW 1028,0 10 0 0,0
17.11.2017 07:00:00 0,6 -0,5 0,3 1,7 3,7 10,3 5 3 7 4 NNW 1028,0 7 0 0,0
17.11.2017 06:00:00 0,7 -0,2 0,7 1,7 3,7 10,4 0 0 6 3 N 1027,6 8 0 0,0
17.11.2017 05:00:00 0,4 -0,5 0,4 1,5 3,8 10,4 2 1 5 3 S 1027,6 9 0 0,0
17.11.2017 04:00:00 0,1 -0,8 0,0 1,4 3,9 10,4 5 3 7 4 N 1027,6 8 0 0,0
17.11.2017 03:00:00 0,0 -0,8 -0,6 1,5 3,9 10,4 0 0 4 2 N 1027,7 8 0 0,0
17.11.2017 02:00:00 -0,3 -1,2 -0,6 1,4 4,0 10,4 0 0 6 3 N 1028,2 9 0 0,0
17.11.2017 01:00:00 0,7 -0,9 -0,2 1,7 4,1 10,4 4 2 7 4 NNE 1027,8 11 0 0,0
17.11.2017 00:00:00 0,8 -0,8 0,2 1,8 4,2 10,4 3 2 6 3 N 1027,7 11 0 0,0
16.11.2017 23:00:00 0,4 -1,2 -0,6 2,0 4,2 10,5 4 2 14 7 W 1027,9 13 0 0,0
16.11.2017 22:00:00 1,3 -1,1 1,2 2,5 4,3 10,5 10 5 14 8 SE 1027,6 14 0 0,0
16.11.2017 21:00:00 1,6 -0,8 1,7 2,6 4,3 10,5 4 2 8 4 SSE 1027,7 11 0 0,0
16.11.2017 20:00:00 1,4 -0,9 1,5 2,7 4,3 10,5 5 3 6 4 W 1027,2 11 0 0,0
16.11.2017 19:00:00 1,6 -0,6 1,6 2,7 4,4 10,5 2 1 6 4 NW 1026,7 12 0 0,0
16.11.2017 18:00:00 1,5 -0,4 1,5 2,8 4,4 10,5 4 2 6 3 WNW 1026,7 11 0 0,0
16.11.2017 17:00:00 1,5 -0,7 1,7 3,0 4,4 10,5 3 1 6 4 NNW 1026,5 11 0 0,0
16.11.2017 16:00:00 1,5 -0,9 2,1 3,3 4,3 10,5 4 2 9 5 NW 1026,2 11 0 0,0
16.11.2017 15:00:00 1,3 -1,1 1,9 3,3 4,2 10,6 8 4 11 6 NW 1026,1 11 0 0,0
16.11.2017 14:00:00 1,4 -0,8 2,1 3,5 4,1 10,6 4 2 8 5 NNE 1026,3 11 0 0,0
16.11.2017 13:00:00 1,2 -0,7 2,5 3,4 4,1 10,6 7 4 9 5 NNW 1026,5 10 0 0,0
16.11.2017 12:00:00 1,0 -0,5 2,1 3,0 4,0 10,6 5 3 7 4 NNW 1026,6 10 0 0,0
16.11.2017 11:00:00 0,7 -1,0 1,4 2,6 4,0 10,6 5 3 7 4 NW 1026,9 10 0 0,0
16.11.2017 10:00:00 0,5 -0,8 1,1 2,3 3,9 10,6 4 2 6 3 N 1026,7 9 0 0,0
16.11.2017 09:00:00 0,5 -0,9 0,5 2,0 4,0 10,6 0 0 8 5 N 1026,4 11 0 0,0
16.11.2017 08:00:00 0,1 -1,1 0,3 2,0 4,0 10,7 4 2 5 3 NW 1026,2 10 0 0,0
16.11.2017 07:00:00 0,1 -0,8 0,5 2,0 4,0 10,7 4 2 7 4 N 1025,8 7 0 0,0
16.11.2017 06:00:00 0,1 -0,5 0,4 2,0 4,0 10,7 4 2 7 4 NNE 1025,9 7 0 0,0
16.11.2017 05:00:00 0,2 -0,2 0,7 2,0 4,1 10,7 4 2 6 3 NNW 1025,8 4,4 0 0,0
16.11.2017 04:00:00 0,0 -0,6 0,3 2,0 4,1 10,7 4 2 10 6 SE 1025,7 8 0 0,0
16.11.2017 03:00:00 -0,3 -0,8 0,0 2,0 4,1 10,7 4 2 8 4 SE 1026,2 9 0 0,0
16.11.2017 02:00:00 -0,3 -0,7 0,1 2,0 4,2 10,7 7 4 11 6 SSE 1026,2 5 0 0,0
16.11.2017 01:00:00 0,0 -0,3 0,4 2,2 4,2 10,7 4 2 11 6 WSW 1026,5 2,9 0 0,0
16.11.2017 00:00:00 0,1 -0,4 0,5 2,2 4,2 10,8 6 3 8 5 SSW 1026,7 4,8 0 0,0
15.11.2017 23:00:00 0,2 0,2 0,7 2,3 4,2 10,8 3 2 6 4 WNW 1026,7 0,7 0 0,0
15.11.2017 22:00:00 0,1 0,1 0,8 2,3 4,2 10,8 4 2 7 4 NNW 1026,8 0,3 0 0,0
15.11.2017 21:00:00 0,2 0,2 0,8 2,4 4,2 10,8 6 4 9 5 NW 1027,0 0,6 0 0,0
15.11.2017 20:00:00 0,5 0,5 0,8 2,4 4,2 10,8 3 2 9 5 WSW 1027,0 0,2 0 0,0
15.11.2017 19:00:00 0,5 0,3 0,9 2,5 4,2 10,8 3 2 6 3 W 1026,9 0,3 0 0,0
15.11.2017 18:00:00 0,4 0,1 1,0 2,6 4,1 10,8 4 2 8 5 N 1026,6 0,3 0 0,0
15.11.2017 17:00:00 0,4 0,2 1,1 2,8 4,0 10,8 5 3 8 4 NE 1026,5 0,4 0 0,0
15.11.2017 16:00:00 0,6 0,2 1,4 3,0 3,9 10,8 3 2 8 4 E 1026,5 3,7 0 0,0
15.11.2017 15:00:00 0,3 0,0 1,8 2,7 3,7 10,9 5 3 8 5 NNE 1026,8 3,6 0 0,0
15.11.2017 14:00:00 -0,3 -0,4 1,4 1,5 3,7 10,9 4 2 9 5 N 1027,0 1,6 0 0,0
15.11.2017 13:00:00 -0,6 -0,6 0,9 0,7 3,7 10,9 5 3 9 5 N 1027,7 2,5 0 0,0
15.11.2017 12:00:00 -0,7 -0,8 0,3 0,7 3,8 10,9 5 3 8 5 NW 1028,3 0,8 0 0,0
15.11.2017 11:00:00 -1,5 -1,6 -0,1 0,7 3,8 10,9 5 3 9 5 NNW 1028,8 0,3 0 0,0
15.11.2017 10:00:00 -1,8 -2,1 -0,4 0,7 3,9 10,9 4 2 6 3 NNW 1029,0 1,2 0 0,0
15.11.2017 09:00:00 -2,1 -2,3 -1,0 0,7 4,0 10,9 4 2 6 3 NNW 1029,1 0,4 0 0,0
15.11.2017 08:00:00 -2,2 -2,5 -1,7 0,7 4,1 10,9 3 2 6 3 WSW 1028,8 0,3 0 0,0
15.11.2017 07:00:00 -2,2 -2,3 -1,9 0,7 4,2 10,9 6 3 7 4 WSW 1028,4 0,3 0 0,0
15.11.2017 06:00:00 -3,3 -3,5 -2,9 0,7 4,3 10,9 0 0 8 4 N 1028,2 0,1 0 0,0
15.11.2017 05:00:00 -3,0 -3,3 -5,2 0,8 4,5 11,0 3 1 5 3 ENE 1028,3 6 0 0,0
15.11.2017 04:00:00 -3,3 -3,5 -5,9 0,9 4,6 11,0 0 0 7 4 N 1028,4 0,6 0 0,0
15.11.2017 03:00:00 -4,0 -5,0 -5,4 1,1 4,8 11,0 0 0 8 4 N 1028,6 6 0 0,0
15.11.2017 02:00:00 -2,7 -3,0 -4,5 1,2 5,0 11,0 0 0 4 2 N 1028,7 7 0 0,0
15.11.2017 01:00:00 -2,8 -2,9 -4,3 1,3 5,2 11,0 2 1 4 2 WNW 1028,9 0,5 0 0,0
15.11.2017 00:00:00 -2,3 -3,0 -4,5 1,4 5,4 11,0 2 1 4 2 N 1029,0 1,9 0 0,0
14.11.2017 23:00:00 -2,4 -3,2 -4,3 1,5 5,7 11,0 2 1 8 4 SSE 1029,1 15 0 0,0
14.11.2017 22:00:00 -1,8 -2,1 -4,3 1,7 6,0 11,0 0 0 4 2 N 1029,3 3,2 0 0,0
14.11.2017 21:00:00 -1,1 -1,3 -3,2 1,9 6,4 11,0 0 0 4 2 N 1029,1 1,2 0 0,0
14.11.2017 20:00:00 -0,6 -1,7 -3,3 2,6 6,7 11,0 3 2 5 3 NNW 1028,6 16 0 0,0
14.11.2017 19:00:00 0,9 0,3 -1,1 3,5 7,0 11,0 2 1 7 4 W 1028,2 9 0 0,0
14.11.2017 18:00:00 4,0 2,3 1,1 4,8 7,1 11,0 4 2 9 5 NE 1027,6 17 0 0,0
14.11.2017 17:00:00 4,7 0,9 1,3 6,5 7,1 11,0 5 3 13 7 NW 1026,8 45 2 0,0
14.11.2017 16:00:00 6,6 2,0 7,3 8,3 6,9 11,1 9 5 16 9 NW 1026,5 42 60 0,0
14.11.2017 15:00:00 6,7 3,1 9,6 9,3 6,5 11,1 11 6 18 10 WNW 1026,2 35 60 0,0
14.11.2017 14:00:00 6,4 1,3 9,1 9,8 6,0 11,1 11 6 14 8 NNW 1026,2 52 56 0,0
14.11.2017 13:00:00 6,0 0,1 10,9 9,3 5,5 11,1 6 3 14 7 NNW 1026,7 40 60 0,0
14.11.2017 12:00:00 5,2 1,4 9,6 7,8 5,0 11,1 7 4 11 6 NW 1026,9 33 60 0,0
14.11.2017 11:00:00 3,5 0,9 7,6 4,9 4,9 11,1 4 2 7 4 NNE 1027,6 36 60 0,0
14.11.2017 10:00:00 1,6 1,0 4,5 1,8 4,9 11,1 5 3 7 4 NW 1027,9 21 53 0,0
14.11.2017 09:00:00 -0,9 -1,1 -1,3 1,3 5,1 11,1 3 1 6 3 SW 1027,6 0,2 1 0,0
14.11.2017 08:00:00 -1,4 -1,4 -3,3 1,3 5,3 11,1 3 2 5 3 NNW 1027,1 1,2 0 0,0
14.11.2017 07:00:00 -2,0 -2,1 -3,8 1,4 5,5 11,1 4 2 6 3 N 1026,5 2,9 0 0,0
14.11.2017 06:00:00 -0,9 -1,0 -2,8 1,5 5,8 11,1 2 1 7 4 ESE 1025,8 0,4 0 0,0
14.11.2017 05:00:00 -1,1 -1,4 -2,8 1,7 6,1 11,1 2 1 8 5 NE 1025,6 0,3 0 0,0
14.11.2017 04:00:00 0,0 -0,2 -1,6 2,2 6,3 11,1 5 3 6 3 N 1025,2 5 0 0,0
14.11.2017 03:00:00 1,0 0,8 -0,8 3,1 6,5 11,1 5 3 7 4 N 1024,8 3,5 0 0,0
14.11.2017 02:00:00 2,3 1,9 0,2 4,2 6,6 11,1 2 1 6 3 E 1024,2 0,4 0 0,0
14.11.2017 01:00:00 3,3 2,8 2,4 4,6 6,7 11,1 4 2 6 4 NNW 1023,8 8 0 0,0
14.11.2017 00:00:00 3,2 2,9 3,0 4,6 6,7 11,1 0 0 6 3 N 1023,8 8 0 0,0
13.11.2017 23:00:00 3,9 3,0 3,4 4,8 6,8 11,1 4 2 11 6 SSE 1023,2 15 0 0,0
13.11.2017 22:00:00 4,1 3,6 3,4 4,9 6,9 11,2 0 0 5 3 N 1022,9 16 0 0,0
13.11.2017 21:00:00 4,5 3,4 3,7 5,1 7,0 11,2 0 0 10 6 N 1022,5 14 0 0,0
13.11.2017 20:00:00 3,9 3,4 3,9 5,1 7,1 11,2 5 3 10 5 NNW 1022,0 9 0 0,0
13.11.2017 19:00:00 3,7 3,0 3,1 5,1 7,3 11,2 1 1 7 4 WSW 1021,4 14 0 0,2
13.11.2017 18:00:00 3,7 3,1 3,2 5,1 7,4 11,2 3 2 8 5 NE 1020,7 7 0 0,0

tt = Température de l'air
td = dewpoint
tt 5cm = Température de l'air 5cm
tt -5cm = Température de l'air -5cm
tt -20cm = Température de l'air -20cm
tt -100cm = Température de l'air -100cm
ff = Vitesse du vent
fx = gusts
dd = Direction du vent
ppp = reduced air pressure
vv = visibility
sd = Ensoleillement
rr = Quantités de précipitations

stations d'obs. à proximité